Main page
METAR-TAF:

METAR-TAF

Airports :

Chicago Executive Airport

Wheeling / Prospect Heights, Illinois, United States

latitude: 42-07-15N, longitude: 087-54-17W, elevation: 646 ft

Current weather observation

The report was made 36 minutes ago, at 22:52 UTC
Calm wind
Temperature 84°F
Humidity 74%
Pressure 29.91 in. Hg
Visibility: 10 miles
Scattered clouds at a height of 3300 ft

METAR: KPWK 142252Z 00000KT 10SM SCT033 29/24 A2991 RMK AO2 SLP124 T02940239 $

Time: 18:28 (23:28 UTC)


TAF: missing

Weather observations and forecasts of more than 4000 airports (METAR and TAF reports).

The available stations are represented by yellow and red dots on the map.

Hover mouse over dot to see the name of the station.

Then click to see weather observations and forecasts.

To change the map : click on the green buttons with a black cross to zoom in, on the green button with a dash to zoom out, or on the green arrows for adjacent maps.


METAR-TAF: